Probability
10 23 61 61 48 52 55 55 61 61 65 58 52 48 48 58 58 52 52 61 61 55 48 52 48 45 48 48 42 42 39 42 42 45 42 39 45 42 45 48 32 35 55
13 29 55 55 52 52 52 52 52 55 52 48 52 55 45 45 48 55 55 58 55 58 55 42 42 39 39 42 32 29 29 23 29 32 32 26 42 45 39 42 29 23 42
13 32 45 55 52 58 58 48 48 45 45 42 45 58 48 45 45 52 45 52 55 55 55 55 42 39 32 29 26 23 19 16 19 13 16 13 23 35 35 35 39 29 32
13 29 39 48 52 55 58 52 45 45 45 45 42 48 45 39 39 39 42 42 48 48 52 42 39 29 23 29 32 23 16 10 16 6 6 6 13 26 23 26 26 32 29
13 16 45 52 55 45 52 48 45 45 39 39 39 45 42 39 35 29 39 45 35 45 35 35 35 26 26 29 23 16 10 6 6 6 0 3 6 23 19 19 32 29 29
10 13 48 55 48 42 42 45 42 35 35 35 35 35 39 35 39 32 32 26 39 42 32 32 29 23 19 23 16 13 6 3 3 0 0 3 3 16 16 23 23 23 32
10 10 35 55 45 39 42 39 39 29 35 35 35 35 29 35 35 29 26 26 29 29 26 26 23 16 13 10 6 6 6 3 0 0 0 3 6 13 16 16 23 26 26
10 13 29 48 48 42 39 39 39 35 35 35 32 29 29 32 29 26 29 19 19 23 19 10 13 13 13 3 6 3 3 0 0 0 0 3 13 10 13 13 23 23 26
10 10 10 35 39 45 39 39 35 35 26 23 23 13 19 19 19 23 19 16 19 19 19 10 10 13 6 6 6 13 10 0 0 0 0 0 10 13 16 16 16 13 13
10 10 13 13 19 16 26 35 32 29 19 19 16 16 13 13 13 13 19 13 19 23 16 13 10 13 3 0 0 0 6 0 0 0 0 3 6 6 13 16 16 10 6
3 6 6 6 3 10 10 26 23 19 19 19 13 19 13 3 3 6 16 16 13 10 10 10 3 3 6 3 3 3 3 0 0 0 0 10 6 6 6 10 13 6 6
3 0 3 3 0 3 10 6 0 0 0 0 0 0 0 0 0 0 0 13 10 10 10 10 3 3 0 0 0 0 0 0 0 0 0 6 3 3 3 6 10 10 6
3 3 0 0 0 3 3 0 0 0 0 0 0 0 0 0 0 0 0 0 0 0 0 0 0 0 0 0 0 0 0 0 0 0 0 10 3 6 6 6 10 10 10
3 6 6 0 0 0 0 0 0 0 0 0 0 0 0 0 0 0 0 0 0 0 0 0 0 0 0 0 0 0 0 0 0 0 0 10 10 10 10 10 6 6 10
3 3 3 3 0 0 0 0 0 0 0 0 0 0 0 0 0 0 0 0 0 0 0 0 0 0 0 0 0 0 0 0 0 0 0 0 10 10 6 10 10 10 6
0 3 3 3 0 0 0 0 0 0 0 0 0 0 0 0 0 0 0 0 0 0 0 0 0 0 0 0 0 0 0 0 0 0 0 0 3 6 6 10 10 10 10
0 0 0 0 0 0 0 0 0 0 0 0 0 0 0 0 0 0 0 0 0 0 0 0 0 0 0 0 0 0 0 0 0 0 0 0 0 3 6 6 10 10 10
0 0 0 3 0 0 0 0 0 0 0 0 0 0 0 0 0 0 0 0 0 0 0 0 0 0 0 0 0 0 0 0 0 0 0 0 0 0 0 6 13 10 13
0 0 0 3 0 0 0 0 0 0 0 0 0 0 0 0 0 0 0 0 0 0 0 0 0 0 0 0 0 0 0 0 0 0 0 0 0 0 0 0 6 10 10
0 0 0 0 0 0 0 0 0 0 0 0 0 0 0 0 0 0 0 0 0 0 0 0 0 0 0 0 0 0 0 0 0 0 0 0 0 0 0 0 0 0 3
0 0 0 0 0 0 0 0 0 0 0 0 0 0 0 0 0 0 0 0 0 0 0 0 0 0 0 0 0 0 0 0 0 0 0 0 0 0 0 0 0 0 0
0 0 0 0 0 0 0 0 0 0 0 0 0 0 0 0 0 0 0 0 0 0 0 0 0 0 0 0 0 0 0 0 0 0 0 0 0 0 0 0 0 0 0
0 0 0 0 0 0 0 0 0 0 0 0 0 0 0 0 0 0 0 0 0 0 0 0 0 0 0 0 0 0 0 0 0 0 0 0 0 0 0 0 0 0 0
0 0 0 0 0 0 0 0 0 0 0 0 0 0 0 0 0 0 0 0 0 0 0 0 0 0 0 0 0 0 0 0 0 0 0 0 0 0 0 0 0 0 0
0 0 0 0 0 0 0 0 0 0 0 0 0 0 0 0 0 0 0 0 0 0 0 0 0 0 0 0 0 0 0 0 0 0 0 0 0 0 0 0 0 0 0
0 0 0 0 0 0 0 0 0 0 0 0 0 0 0 0 0 0 0 0 0 0 0 0 0 0 0 0 0 0 0 0 0 0 0 0 0 0 0 0 0 0 0
Height
5884 5883 5883 5883 5882 5882 5882 5881 5881 5881 5880 5880 5879 5879 5878 5877 5876 5876 5875 5875 5874 5873 5873 5873 5872 5872 5872 5872 5872 5872 5871 5871 5872 5871 5871 5871 5871 5870 5870 5870 5869 5869 5869
5883 5883 5883 5882 5882 5882 5881 5881 5881 5880 5880 5879 5879 5878 5877 5877 5876 5875 5875 5874 5873 5873 5872 5872 5872 5872 5872 5871 5871 5871 5870 5870 5870 5870 5870 5870 5869 5869 5868 5867 5867 5866 5867
5883 5882 5882 5882 5881 5881 5881 5880 5880 5880 5879 5879 5878 5878 5877 5876 5875 5874 5874 5873 5873 5872 5872 5871 5871 5871 5871 5870 5870 5870 5869 5869 5869 5869 5869 5868 5868 5867 5866 5865 5864 5863 5864
5882 5882 5881 5881 5881 5880 5880 5880 5879 5879 5878 5878 5877 5877 5876 5875 5874 5873 5873 5872 5872 5871 5871 5871 5870 5870 5870 5869 5869 5868 5868 5867 5867 5867 5867 5867 5866 5866 5865 5863 5861 5859 5861
5881 5881 5881 5880 5880 5879 5879 5879 5878 5877 5877 5876 5876 5875 5875 5874 5873 5873 5872 5871 5871 5870 5870 5869 5869 5869 5868 5868 5868 5867 5867 5866 5866 5866 5866 5865 5865 5864 5864 5863 5861 5859 5860
5880 5880 5880 5879 5879 5878 5878 5877 5877 5876 5876 5875 5875 5874 5873 5873 5872 5871 5871 5870 5870 5869 5869 5868 5868 5867 5867 5867 5866 5866 5865 5865 5865 5864 5864 5864 5863 5863 5862 5861 5860 5860 5859
5879 5879 5879 5878 5878 5877 5877 5876 5876 5875 5874 5874 5873 5872 5872 5871 5871 5870 5869 5869 5868 5868 5867 5867 5866 5866 5865 5865 5864 5864 5863 5863 5863 5863 5862 5862 5862 5861 5860 5860 5859 5858 5858
5878 5878 5877 5877 5877 5876 5876 5875 5874 5874 5873 5872 5871 5871 5870 5870 5869 5868 5868 5867 5867 5866 5865 5865 5864 5864 5864 5863 5863 5862 5861 5861 5861 5861 5860 5860 5860 5859 5859 5858 5857 5857 5856
5877 5876 5876 5876 5875 5875 5874 5873 5873 5872 5871 5870 5870 5869 5868 5868 5867 5866 5866 5865 5864 5864 5863 5863 5863 5862 5862 5861 5861 5860 5860 5859 5859 5859 5858 5858 5858 5857 5856 5856 5855 5855 5854
5875 5875 5875 5874 5874 5873 5872 5872 5871 5870 5869 5868 5868 5867 5867 5866 5865 5865 5864 5863 5862 5862 5861 5861 5861 5860 5860 5859 5859 5858 5857 5857 5857 5856 5856 5856 5855 5855 5854 5853 5853 5852 5852
5874 5873 5873 5872 5872 5871 5871 5870 5869 5868 5867 5866 5866 5865 5865 5864 5863 5863 5862 5861 5860 5860 5859 5859 5858 5858 5858 5857 5856 5856 5856 5855 5854 5854 5854 5853 5853 5852 5852 5851 5851 5850 5849
5872 5872 5871 5870 5870 5869 5869 5868 5867 5866 5865 5864 5864 5863 5863 5862 5861 5861 5860 5859 5859 5858 5858 5857 5857 5856 5855 5855 5854 5854 5853 5853 5852 5852 5851 5851 5850 5850 5849 5849 5848 5848 5847
5871 5870 5869 5869 5868 5867 5867 5866 5865 5864 5863 5862 5862 5861 5860 5860 5859 5858 5858 5857 5857 5856 5855 5855 5854 5853 5853 5852 5852 5851 5851 5850 5850 5849 5849 5848 5848 5847 5847 5846 5846 5845 5845
5869 5869 5868 5867 5866 5865 5865 5864 5863 5862 5861 5860 5859 5859 5858 5857 5857 5856 5855 5855 5854 5854 5853 5853 5852 5851 5851 5850 5849 5849 5848 5848 5847 5847 5846 5846 5845 5845 5844 5844 5843 5843 5842
5868 5867 5866 5865 5864 5864 5863 5862 5861 5860 5859 5858 5857 5856 5856 5855 5854 5854 5853 5852 5852 5851 5850 5850 5850 5849 5848 5848 5847 5846 5846 5845 5845 5844 5843 5843 5843 5842 5841 5841 5841 5840 5839
5866 5865 5865 5864 5863 5862 5861 5860 5859 5858 5857 5856 5855 5854 5853 5852 5852 5851 5851 5850 5849 5848 5848 5847 5847 5846 5846 5845 5845 5844 5843 5842 5842 5841 5840 5840 5839 5839 5839 5838 5837 5837 5836
5864 5863 5862 5861 5860 5859 5858 5857 5856 5855 5854 5853 5852 5851 5850 5850 5849 5848 5848 5847 5846 5846 5845 5845 5844 5843 5843 5842 5842 5841 5840 5840 5838 5838 5837 5837 5836 5836 5835 5835 5834 5833 5833
5862 5861 5860 5859 5858 5857 5856 5855 5854 5853 5852 5851 5850 5849 5848 5847 5846 5845 5845 5844 5844 5843 5843 5842 5841 5841 5840 5839 5838 5838 5837 5837 5836 5835 5834 5833 5833 5832 5832 5831 5830 5829 5829
5859 5858 5857 5856 5856 5855 5854 5852 5851 5850 5849 5848 5847 5846 5846 5845 5844 5843 5842 5842 5841 5841 5840 5840 5839 5838 5837 5836 5835 5835 5834 5833 5833 5832 5831 5830 5829 5829 5828 5827 5827 5825 5824
5856 5855 5854 5854 5853 5852 5851 5850 5849 5848 5846 5845 5845 5844 5843 5842 5841 5841 5840 5839 5839 5838 5837 5837 5836 5835 5834 5833 5833 5832 5831 5830 5829 5828 5828 5827 5826 5825 5824 5823 5822 5821 5819
5853 5852 5851 5851 5850 5849 5848 5847 5846 5845 5844 5843 5842 5841 5840 5840 5839 5838 5838 5837 5836 5835 5835 5834 5833 5832 5831 5830 5830 5829 5828 5827 5826 5825 5824 5823 5822 5821 5820 5819 5818 5817 5815
5849 5848 5848 5847 5846 5846 5845 5844 5843 5842 5841 5840 5839 5838 5838 5837 5836 5835 5835 5834 5833 5832 5832 5831 5830 5829 5828 5827 5826 5825 5824 5824 5822 5821 5821 5820 5819 5818 5817 5816 5815 5813 5811
5845 5845 5844 5844 5843 5842 5841 5841 5840 5839 5838 5837 5836 5836 5835 5834 5833 5832 5832 5831 5830 5829 5828 5828 5827 5826 5825 5824 5823 5822 5821 5820 5819 5818 5817 5816 5814 5814 5813 5812 5811 5810 5809
5842 5841 5840 5840 5839 5838 5838 5837 5836 5836 5835 5834 5833 5833 5832 5831 5830 5829 5829 5828 5827 5826 5825 5824 5823 5822 5821 5820 5819 5819 5818 5817 5816 5814 5813 5811 5810 5809 5808 5808 5807 5807 5806
5838 5837 5836 5836 5835 5835 5834 5833 5833 5832 5831 5831 5830 5829 5829 5828 5827 5826 5825 5824 5823 5822 5821 5820 5820 5819 5818 5817 5816 5815 5814 5813 5812 5810 5809 5808 5806 5805 5804 5803 5803 5802 5802
5834 5833 5832 5832 5831 5831 5830 5829 5829 5829 5828 5827 5826 5825 5825 5824 5823 5822 5821 5820 5819 5818 5817 5817 5816 5815 5814 5813 5812 5810 5809 5808 5807 5806 5805 5803 5802 5801 5799 5798 5798 5797 5797
Wind_Speed
1 1 0 1 2 2 2 3 4 4 4 4 5 5 5 5 5 5 5 5 5 5 5 5 5 5 5 5 6 7 7 7 7 7 7 7 7 7 8 9 9 10 9
2 2 2 2 3 3 4 4 5 4 4 5 5 5 6 6 6 6 5 5 5 6 6 6 6 6 6 7 7 7 7 8 8 8 8 8 8 8 9 9 10 11 10
3 3 3 4 4 5 5 5 6 5 5 5 6 6 6 6 6 6 5 5 5 6 6 6 6 7 7 7 7 7 7 8 8 8 8 8 8 8 9 9 10 11 11
3 4 4 5 5 6 6 6 6 6 6 6 6 7 7 7 7 6 6 5 6 6 6 6 7 7 7 7 6 6 7 7 8 8 8 7 8 8 8 8 9 9 11
4 4 5 5 6 6 7 7 7 7 7 7 7 7 8 7 7 6 7 6 6 6 6 6 7 7 7 7 7 7 7 8 8 8 8 8 8 8 8 9 9 9 10
4 5 5 5 6 6 7 8 8 8 8 7 8 8 8 8 8 7 7 7 7 8 7 7 7 7 7 7 7 8 8 8 8 8 8 8 9 9 9 9 9 9 10
5 5 5 6 6 7 8 7 8 8 8 8 8 8 8 8 8 8 8 8 8 8 8 8 8 8 8 8 8 8 8 8 8 8 8 8 9 9 9 10 9 9 10
5 6 6 7 7 7 8 8 8 9 8 9 9 9 9 9 9 9 9 8 9 9 9 8 9 9 9 9 9 10 10 10 10 9 9 9 9 10 10 10 10 11 12
6 6 7 7 8 7 7 8 9 9 9 9 9 9 9 9 9 9 9 9 9 9 9 9 9 9 9 9 9 10 10 10 10 10 9 9 10 10 11 11 11 11 12
7 7 8 8 8 8 8 9 9 10 10 10 9 9 9 8 9 10 10 10 10 9 9 9 9 9 9 9 9 9 9 10 10 11 10 10 10 11 11 11 11 11 11
7 8 8 8 8 9 9 10 10 10 11 10 10 9 9 9 9 9 10 10 10 10 9 10 9 9 9 9 9 9 9 10 10 11 11 12 12 12 11 11 11 11 11
7 8 8 8 8 9 9 10 10 10 10 10 9 9 9 9 9 10 10 10 10 9 10 10 10 10 10 10 10 10 10 10 11 11 11 12 12 12 12 11 11 11 11
7 7 8 8 9 9 9 10 10 10 10 10 10 10 10 10 10 10 10 9 10 10 10 10 10 10 10 10 10 10 10 10 10 10 10 11 11 11 11 12 12 12 11
8 7 7 8 9 10 10 10 10 10 10 11 10 10 10 10 10 10 10 10 10 10 10 10 10 10 10 10 10 10 11 11 11 11 11 11 11 12 12 13 13 13 12
9 8 8 8 9 9 10 10 11 10 10 10 11 10 10 10 10 10 10 10 10 10 10 10 10 11 10 10 10 11 11 12 12 12 12 13 12 12 12 13 13 13 13
9 9 9 9 10 10 11 11 11 11 10 10 10 10 11 11 11 10 11 11 11 11 11 11 11 11 11 11 11 11 12 13 13 13 13 13 13 12 12 13 13 13 13
8 9 10 11 11 11 11 11 11 10 11 10 10 10 11 11 12 12 11 11 11 10 11 11 11 11 11 12 12 12 13 13 13 13 13 12 12 13 13 13 13 14 14
9 10 10 10 10 11 11 11 10 10 10 10 10 10 11 11 11 11 11 11 10 10 10 10 11 11 12 12 12 12 13 13 12 13 13 13 13 14 14 14 14 14 14
10 10 10 10 11 11 11 11 10 10 10 10 10 10 10 10 11 10 10 10 10 10 10 10 11 11 12 12 12 13 13 13 13 13 13 13 14 14 14 14 15 15 15
11 11 11 11 11 11 11 11 11 11 11 11 10 10 10 10 10 10 10 9 10 11 11 11 11 12 12 12 12 13 13 13 13 13 14 14 14 14 14 14 15 15 15
12 12 12 12 11 11 11 12 12 11 11 11 10 10 10 10 10 11 10 10 11 11 11 11 12 12 12 12 12 13 13 13 14 14 14 14 14 14 15 15 15 14 14
12 12 13 12 12 12 11 12 12 11 10 10 10 10 10 10 10 11 11 11 11 11 11 12 12 12 12 13 13 13 13 13 14 14 14 15 15 15 15 15 14 13 12
12 13 13 12 12 12 12 12 12 11 10 10 11 11 11 11 11 11 12 12 12 11 12 12 12 13 13 13 13 12 13 13 14 15 15 15 15 15 15 15 14 13 13
12 13 12 12 12 12 12 12 11 11 11 11 11 11 11 11 12 12 12 13 13 13 13 13 13 13 13 13 13 13 14 14 14 15 15 15 15 15 15 16 15 15 14
12 12 12 12 11 11 12 12 12 12 12 13 13 13 13 12 13 13 14 14 14 14 13 13 14 14 14 14 14 14 15 15 15 15 15 15 16 16 16 16 16 16 15
13 13 13 13 12 12 12 12 12 12 13 14 14 14 15 14 14 15 15 15 15 15 15 14 14 14 15 15 15 16 16 17 17 16 16 16 17 17 18 18 18 18 17
Wind_Direction
295 280 291 302 309 317 328 328 328 324 322 319 321 321 319 319 313 311 296 283 279 273 270 267 261 260 265 266 261 258 255 250 257 260 259 260 257 257 262 263 260 257 254
300 287 283 288 303 313 314 313 315 311 313 312 309 307 308 310 310 308 302 291 285 280 273 265 264 267 267 266 262 257 255 255 258 265 270 273 270 268 271 270 267 261 256
295 290 289 295 302 307 306 304 302 301 304 303 302 303 306 306 304 303 299 291 286 283 277 267 265 267 267 267 267 261 262 264 261 265 268 270 270 273 276 275 276 265 253
289 286 287 293 296 298 299 301 300 298 296 296 295 298 303 301 301 296 297 292 286 286 280 275 273 272 272 271 270 271 271 270 267 267 267 268 271 273 275 276 275 261 253
293 290 288 291 293 295 296 299 301 297 296 293 292 296 299 299 298 298 293 287 284 285 286 278 274 273 274 275 271 271 270 269 272 272 271 273 273 276 277 278 273 258 252
294 296 294 292 293 295 298 299 301 298 298 294 292 295 296 296 297 295 292 285 282 280 281 280 276 275 275 275 274 269 268 268 272 273 272 271 269 271 276 276 273 266 261
299 301 300 294 293 294 296 295 298 302 306 301 297 294 291 292 294 295 293 286 283 283 283 280 278 276 275 275 274 271 268 267 271 273 271 269 269 272 271 270 269 268 266
294 294 294 295 296 297 297 293 294 296 299 302 299 298 296 293 291 290 287 282 280 281 284 283 281 279 277 276 273 272 272 271 274 274 271 270 269 270 270 271 270 269 269
293 292 292 293 294 296 297 296 295 295 297 298 297 296 297 294 293 294 291 286 281 278 280 282 282 279 278 277 275 273 273 273 273 272 273 272 272 272 271 271 273 270 268
294 294 294 291 293 295 295 293 293 296 297 296 293 293 296 293 289 290 289 288 284 281 281 281 281 279 279 278 279 278 277 276 273 273 273 273 274 276 276 276 276 275 273
297 296 296 294 292 292 292 293 293 295 296 294 291 289 289 289 287 288 287 286 286 283 283 281 280 282 285 283 280 280 279 279 276 272 273 273 275 276 278 279 283 281 275
300 299 298 299 295 293 292 292 293 294 293 292 290 289 287 286 287 284 285 285 287 284 286 285 283 283 285 283 281 281 280 280 278 276 274 273 274 274 276 280 282 281 277
297 300 300 301 301 298 296 296 295 294 293 291 289 288 286 284 284 282 281 283 285 285 285 284 286 286 285 284 283 281 281 281 279 278 278 275 270 269 273 276 277 277 275
302 299 298 301 303 303 299 299 301 296 293 291 288 286 285 287 287 283 279 281 282 283 280 281 287 287 287 285 283 281 281 281 280 279 278 276 271 270 273 273 273 274 275
300 301 297 299 302 303 300 299 301 299 295 290 287 288 289 287 287 283 280 279 282 284 284 286 285 284 285 285 283 283 283 283 282 278 278 275 273 274 274 274 272 272 274
300 298 296 298 301 299 298 297 299 296 294 291 287 288 288 286 286 283 283 283 286 285 284 284 282 281 283 282 280 282 282 281 281 280 280 277 273 272 273 273 273 274 275
295 296 297 297 300 302 301 299 298 297 295 293 292 290 289 288 287 287 286 286 285 282 283 284 283 281 281 281 281 281 280 280 280 280 280 276 273 273 272 275 273 273 273
292 295 299 298 299 303 303 301 300 300 300 296 293 290 290 290 290 287 286 286 287 285 286 286 287 285 284 283 282 281 283 284 283 284 282 277 276 277 276 278 278 275 272
292 295 296 296 296 299 303 304 302 302 301 297 293 290 290 289 290 291 287 286 286 287 286 286 288 288 288 287 284 283 285 283 282 284 285 281 278 278 278 279 280 281 275
290 292 293 296 296 296 298 301 301 299 298 296 293 290 289 289 289 290 291 290 289 290 289 287 286 288 290 290 289 287 286 284 284 285 285 284 280 279 280 281 283 283 280
286 288 290 292 294 296 297 296 295 295 294 293 290 288 290 289 288 289 289 292 293 291 290 289 288 290 291 291 291 289 287 285 286 286 286 285 282 279 280 281 282 283 280
285 284 284 287 290 291 293 294 296 298 298 297 293 290 291 290 288 289 288 289 291 291 291 292 290 291 291 292 292 290 288 287 287 287 287 285 283 282 283 282 283 283 280
283 283 283 284 288 289 290 290 292 294 293 294 294 292 291 290 289 287 288 288 288 288 290 290 289 290 292 293 292 290 289 291 291 290 289 287 284 281 280 280 279 280 279
283 281 280 281 284 286 286 287 289 289 289 289 289 290 289 289 290 289 288 287 287 285 285 288 289 290 292 293 291 289 289 289 292 292 290 288 285 282 280 278 277 276 274
281 281 278 280 281 281 281 282 284 284 285 286 286 287 288 290 289 288 290 288 285 284 282 284 287 288 289 290 289 289 290 289 288 289 290 288 285 282 282 280 278 277 275
278 278 275 276 279 281 280 279 281 282 283 283 284 287 287 290 290 288 289 290 287 283 281 280 282 285 287 286 286 286 287 288 288 289 288 286 284 284 283 282 280 277 275